Weather History for Port Angeles, WA

Change the Weather History Date:

Saturday, December 14, 2013

  Actual Average Record
Temperature  
Mean Temperature 44 °F -  
Max Temperature 48 °F 47 °F 54 °F (1962)
Min Temperature 41 °F 35 °F 24 °F (2000)
Degree Days  
Heating Degree Days 20    
Moisture  
Dew Point 42 °F    
Average Humidity 91    
Maximum Humidity 97    
Minimum Humidity 80    
Precipitation  
Precipitation 0.00 in - - ()
Sea Level Pressure  
Sea Level Pressure 30.34 in    
Wind  
Wind Speed 4 mph (South)    
Max Wind Speed 8 mph    
Max Gust Speed -    
Visibility 9 miles    
Events      
Averages and records for this station are not official NWS values.
T = Trace of Precipitation, MM = Missing Value Source: NWS Daily Summary

Daily Weather History Graph

Daily Weather History Graph

Search for Another Location

Airport:

Trip Planner

Search our weather history database for the weather conditions in past years. The results will help you decide how hot, cold, wet, or windy it might be!

Date:

Astronomy

Dec. 14, 2013 Rise Set
Actual Time 7:57 AM PST 4:20 PM PST
Civil Twilight 7:20 AM PST 4:57 PM PST
Nautical Twilight 6:40 AM PST 5:36 PM PST
Astronomical Twilight 6:03 AM PST 6:14 PM PST
Moon 2:53 PM PST (12/14) 5:15 AM PST (12/14)
Length of Visible Light 9h 36m
Length of Day
8h 23m
Waxing Gibbous, 94% of the Moon is Illuminated
Dec 14
Waxing Gibbous
Dec 17
Full
Dec 25
Last Quarter
Jan 1
New
Jan 7
First Quarter

Hourly Weather History & Observations

Time (PST) Temp. Windchill Dew Point Humidity Pressure Visibility Wind Dir Wind Speed Gust Speed Precip Events Conditions
12:17 AM 44.1 °F 40.1 °F 42.1 °F 93% 30.40 in 9.0 mi SE 6.9 mph - N/A   Overcast
12:38 AM 44.1 °F 42.5 °F 43.0 °F 96% 30.41 in 9.0 mi NNW 3.5 mph - N/A   Mostly Cloudy
12:53 AM 43.0 °F 41.3 °F 42.1 °F 97% 30.42 in 6.0 mi SW 3.5 mph - N/A   Mostly Cloudy
1:02 AM 44.1 °F - 42.1 °F 93% 30.41 in 9.0 mi Calm Calm - N/A   Overcast
1:44 AM 44.1 °F - 42.1 °F 93% 30.41 in 8.0 mi Calm Calm - N/A   Overcast
1:53 AM 43.0 °F - 41.0 °F 93% 30.41 in 9.0 mi Calm Calm - N/A   Overcast
2:49 AM 42.8 °F 39.3 °F 41.0 °F 93% 30.37 in 10.0 mi ESE 5.8 mph - N/A   Scattered Clouds
2:53 AM 43.0 °F 38.8 °F 41.0 °F 93% 30.37 in 10.0 mi ESE 6.9 mph - N/A   Partly Cloudy
3:33 AM 43.0 °F 39.5 °F 41.0 °F 93% 30.39 in 10.0 mi West 5.8 mph - N/A   Mostly Cloudy
3:53 AM 42.1 °F - 41.0 °F 96% 30.39 in 10.0 mi Calm Calm - N/A   Overcast
4:29 AM 41.0 °F 38.0 °F 39.0 °F 93% 30.35 in 10.0 mi SE 4.6 mph - N/A   Overcast
4:53 AM 42.1 °F 38.4 °F 39.9 °F 92% 30.33 in 10.0 mi ESE 5.8 mph - N/A   Scattered Clouds
5:25 AM 43.0 °F 38.2 °F 41.0 °F 93% 30.37 in 10.0 mi NW 8.1 mph - N/A   Overcast
5:43 AM 43.0 °F 41.3 °F 41.0 °F 93% 30.35 in 10.0 mi SSW 3.5 mph - N/A   Mostly Cloudy
5:51 AM 42.8 °F 39.3 °F 39.2 °F 87% 30.36 in 10.0 mi West 5.8 mph - N/A   Overcast
5:53 AM 43.0 °F 39.5 °F 39.9 °F 89% 30.37 in 10.0 mi WNW 5.8 mph - N/A   Overcast
6:53 AM 42.1 °F 39.2 °F 39.9 °F 92% 30.32 in 10.0 mi ESE 4.6 mph - N/A   Overcast
7:20 AM 42.1 °F 40.2 °F 41.0 °F 96% 30.33 in 9.0 mi WSW 3.5 mph - N/A   Overcast
7:53 AM 43.0 °F 41.3 °F 39.9 °F 89% 30.33 in 10.0 mi SSW 3.5 mph - N/A   Overcast
8:22 AM 42.1 °F 40.2 °F 41.0 °F 96% 30.33 in 10.0 mi SSW 3.5 mph - N/A   Mostly Cloudy
8:37 AM 42.1 °F 40.2 °F 39.9 °F 92% 30.33 in 10.0 mi SSW 3.5 mph - N/A   Mostly Cloudy
8:48 AM 41.0 °F - 39.2 °F 93% 30.32 in 8.0 mi Calm Calm - N/A   Partly Cloudy
8:53 AM 41.0 °F 39.0 °F 39.9 °F 96% 30.34 in 7.0 mi West 3.5 mph - N/A   Scattered Clouds
9:15 AM 41.0 °F 39.0 °F 39.9 °F 96% 30.35 in 10.0 mi SW 3.5 mph - N/A   Mostly Cloudy
9:40 AM 42.1 °F - 39.9 °F 92% 30.35 in 10.0 mi Calm Calm - N/A   Scattered Clouds
9:53 AM 43.0 °F - 39.9 °F 89% 30.35 in 10.0 mi Calm Calm - N/A   Mostly Cloudy
10:03 AM 44.1 °F - 41.0 °F 89% 30.35 in 10.0 mi Calm Calm - N/A   Mostly Cloudy
10:53 AM 45.0 °F - 41.0 °F 86% 30.35 in 10.0 mi Calm Calm - N/A   Overcast
11:53 AM 46.0 °F 44.8 °F 42.1 °F 86% 30.36 in 10.0 mi ESE 3.5 mph - N/A   Overcast
12:36 PM 46.9 °F - 42.1 °F 83% 30.29 in 10.0 mi ESE 4.6 mph - N/A   Overcast
12:53 PM 48.0 °F - 42.1 °F 80% 30.27 in 10.0 mi East 6.9 mph - N/A   Mostly Cloudy
1:03 PM 48.0 °F - 42.1 °F 80% 30.27 in 10.0 mi Variable 4.6 mph - N/A   Mostly Cloudy
1:23 PM 46.9 °F - 43.0 °F 86% 30.32 in 10.0 mi East 4.6 mph - N/A   Mostly Cloudy
1:53 PM 48.0 °F - 43.0 °F 83% 30.33 in 10.0 mi Calm Calm - N/A   Overcast
2:22 PM 48.0 °F - 43.0 °F 83% 30.32 in 10.0 mi Calm Calm - N/A   Overcast
2:29 PM 48.0 °F - 43.0 °F 83% 30.33 in 10.0 mi North 3.5 mph - N/A   Overcast
2:36 PM 46.9 °F - 43.0 °F 86% 30.32 in 10.0 mi ENE 3.5 mph - N/A   Overcast
2:53 PM 46.0 °F 44.8 °F 44.1 °F 93% 30.33 in 10.0 mi East 3.5 mph - N/A   Overcast
3:02 PM 46.9 °F - 44.1 °F 90% 30.32 in 10.0 mi East 4.6 mph - N/A   Overcast
3:09 PM 46.0 °F 43.9 °F 43.0 °F 89% 30.32 in 10.0 mi East 4.6 mph - N/A   Overcast
3:53 PM 46.0 °F 44.8 °F 43.0 °F 89% 30.32 in 7.0 mi ESE 3.5 mph - N/A   Overcast
4:53 PM 46.0 °F - 43.0 °F 89% 30.31 in 10.0 mi Calm Calm - N/A   Overcast
5:17 PM 45.0 °F 42.6 °F 42.1 °F 90% 30.30 in 10.0 mi ESE 4.6 mph - N/A   Overcast
5:38 PM 45.0 °F 42.6 °F 42.1 °F 90% 30.29 in 10.0 mi ESE 4.6 mph - N/A   Overcast
5:53 PM 45.0 °F 41.8 °F 43.0 °F 93% 30.29 in 10.0 mi SE 5.8 mph - N/A   Overcast
6:00 PM 45.0 °F 42.6 °F 43.0 °F 93% 30.28 in 10.0 mi SE 4.6 mph - N/A   Overcast
6:16 PM 45.0 °F - 43.0 °F 93% 30.28 in 10.0 mi Calm Calm - N/A   Overcast
6:53 PM 45.0 °F 43.5 °F 42.1 °F 90% 30.30 in 9.0 mi WNW 3.5 mph - 0.00 in   Overcast
7:53 PM 44.1 °F 42.5 °F 42.1 °F 93% 30.32 in 6.0 mi West 3.5 mph - 0.00 in   Overcast
8:01 PM 44.1 °F 42.5 °F 42.1 °F 93% 30.31 in 8.0 mi WSW 3.5 mph - N/A   Overcast
8:18 PM 44.1 °F 41.5 °F 42.1 °F 93% 30.30 in 7.0 mi WSW 4.6 mph - N/A   Overcast
8:53 PM 44.1 °F 41.5 °F 42.1 °F 93% 30.32 in 5.0 mi WSW 4.6 mph - N/A   Overcast
9:53 PM 45.0 °F 42.6 °F 43.0 °F 93% 30.32 in 5.0 mi WSW 4.6 mph - N/A   Overcast
10:53 PM 45.0 °F - 43.0 °F 93% 30.31 in 8.0 mi Calm Calm - N/A   Overcast
11:50 PM 42.8 °F 40.1 °F 41.0 °F 93% 30.30 in 1.5 mi WSW 4.6 mph - N/A   Overcast
11:53 PM 43.0 °F 41.3 °F 41.0 °F 93% 30.30 in 1.0 mi WSW 3.5 mph - N/A   Overcast